Regional Weather Roundup
Issued by NWS Charleston, SC

Current Version | Previous Version | Graphics & Text | Print | Product List | Glossary On
Versions: 1 2 3 4 5 6 7 8 9 10 11 12 13 14 15 16 17 18 19 20 21 22 23 24 25 26 27 28 29 30 31 32 33 34 35 36 37 38 39 40 41 42 43 44 45 46 47 48 49 50
000
ASUS42 KCHS 011625
RWRCHS

REGIONAL WEATHER ROUNDUP
NATIONAL WEATHER SERVICE CHARLESTON SC
1200 PM EDT WED OCT 01 2014

NOTE: "FAIR" INDICATES FEW OR NO CLOUDS BELOW 12,000 FEET WITH NO
SIGNIFICANT WEATHER AND/OR OBSTRUCTIONS TO VISIBILITY.

NOT ALL STATIONS ARE QUALITY CONTROLLED BY THE NATIONAL
WEATHER SERVICE. USE DATA WITH CAUTION...ESPECIALLY
DEWPOINT OBSERVATIONS.

SCZ027-030-031-034>040-042>050-011700-
...SOUTH CAROLINA...

CITY           SKY/WX    TMP DP  RH WIND       PRES   REMARKS
N CHARLESTON   MOSUNNY   82  65  56 NE5       30.01R
WATERFRONT PRK   N/A     79 N/A N/A N6          N/A
FORT JOHNSON   NOT AVBL
MOUNT PLEASANT FAIR      81  66  61 CALM      30.01S
JOHNS ISLAND     N/A     82  75  78 N7        30.01S
PINOPOLIS        N/A     79  66  65 CALM      29.94R
MONCKS CORNER  FAIR      79  70  73 N3        30.01S
SUMMERVILLE    FAIR      81  66  61 N3        30.02S
BEAUFORT MCAS  MOSUNNY   81  66  60 VRB3      30.01S
BEAUFORT ARPT  FAIR      79  68  69 E6        30.00S
HILTON HEAD IS MOSUNNY   79  64  61 N5        30.02S
GEORGETOWN     NOT AVBL
WALTERBORO     SUNNY     82  59  44 NE5       30.01F
ORANGEBURG     SUNNY     81  62  52 N3        30.01S
BARNWELL       FAIR      82  64  54 CALM      30.02S
AIKEN          FAIR      82  66  57 CALM      30.05S
MANNING        FAIR      81  68  65 N3        30.01S
KINGSTREE      NOT AVBL
COLUMBIA       MOSUNNY   83  62  49 NW5       30.00F
SUMTER         SUNNY     79  62  56 VRB3      30.00S
FLORENCE       SUNNY     78  65  63 VRB3      30.02S
MYRTLE BEACH   MOSUNNY   79  64  61 SE9       30.01S
N MYRTLE BEACH SUNNY     78  64  61 CALM      30.00F

$$

GAZ063-065-086>088-099>101-113>116-118-119-134-136>141-150-011700-
...GEORGIA...

CITY           SKY/WX    TMP DP  RH WIND       PRES   REMARKS
SAVANNAH ARPT  MOSUNNY   83  64  52 NE3       30.00S
HUNTER AAF     SUNNY     82  66  58 E10       29.98S
FORT STEWART   MOSUNNY   82  65  56 VRB1      29.99S
STATESBORO     NOT AVBL
SYLVANIA       MOSUNNY   83  68  61 E5        30.02S
CLAXTON        FAIR      82  64  54 E3        30.00S
THOMSON        SUNNY     81  70  69 CALM      30.06F
AUGUSTA-BUSH   SUNNY     81  63  54 N3        30.01S
AUGUSTA-DANIEL SUNNY     81  62  52 CALM      30.03R
SWAINSBORO     FAIR      86  68  54 E5        30.02S
VIDALIA        MOSUNNY   82  64  54 CALM      30.01S HAZE
ALMA           MOSUNNY   82  66  58 VRB5      30.00S
WAYCROSS       CLOUDY    81  71  73 NE5       30.00S
JESUP          FAIR      86  68  54 CALM      30.00S
BRUNSWICK      CLOUDY    81  68  65 NE6       30.00F
SAINT SIMONS   CLOUDY    78  68  71 NE7       30.00R

$$

SCZ027-028-034-036>038-045-046-048>050-GAZ119-141-011700-
...LAKE AND SUPPLEMENTAL COASTAL OBSERVATIONS...

STATION/POSITION TIME  TEMP    WIND        PRES    WAVE   SWELL
                       AIR SEA DIR/SP/G            HT/PER HT/PER/DIR
                 (UTC) (F)     (DEG/KT/KT) (MB)    (FT/S) (FT/S/D)
UPR LAKE MARION  NOT AVBL
WINYAH BAY       1600   74      70/  8     1016.0S
LAKE MURRAY      1500   77     190/  6/  6 1015.9R
ACE BASIN NERRS  1500   78     360/  2     1016.0S
FORT PULASKI     1600   77      40/  8/ 10 1016.2F
SAPELO ISLAND    NOT AVBL

$$

ANZ835-935-AMZ111-154-330-350-352-354-374-450-454-472-011700-
...C-MAN AND BUOY OBSERVATIONS...

STATION/POSITION TIME  TEMP    WIND        PRES    WAVE   SWELL
                       AIR SEA DIR/SP/G            HT/PER HT/PER/DIR
                 (UTC) (F)     (DEG/KT/KT) (MB)    (FT/S) (FT/S/D)
FOLLY BEACH CMAN 1600   75      80/  5/  6 1016.6R
BUOY 41004       1600   77 81   30/ 10/ 12 1015.2R   3/ 6   2/ 6
BUOY 41008       1600   76 79   40/  8/ 10 1015.6R   2/ 6   2/ 80/ 6
5E ST. MARYS GA  1600      79                N/A     3/ 8
FRYING PAN BUOY  NOT AVBL
BUOY 41025       1600   72     360/ 16/ 19 1014.4R   4/ 7   2/ 70/ 7
CAPE LOOKOUT NC  1600   75      30/ 10/ 14 1015.2S
BUOY 41002       1549   78 81  340/ 14/ 17 1012.6S   3/ 5   2/ 50/ 7
BUOY 41010       1600   77 84  120/  4/ 12 1014.6R   3/ 8   3/ 20/ 8
BUOY 41012       NOT AVBL
ST AUGUSTINE FL  1600   80      60/  7/  8 1015.4R
CAPERS NEARSHORE 1500   74      40/  6/  8   N/A
FRIPP NEARSHORE  NOT AVBL


$$


USA.gov is the U.S. government's official web portal to all federal, state and local government web resources and services.